EXPRESS-AM7

Last updated on Thu Aug 13 2026 00:03:00 GMT+0000 (Coordinated Universal Time)

1 40505U 15012A 26224.57989483 .00000133 00000+0 00000+0 0 9997 2 40505 0.0154 84.1537 0002826 63.2501 62.3527 1.00270955 41570
UTC large
Height (km)
Speed (km/s)
/
Latitude / Longitude
Inclination (degrees)
Orbital Period (minutes)
Azimuth
Elevation
Range (km)
Doppler Factor

Next 0 passes for location: London (51.5072 / 0.1276)

No passes found over London.
EXPRESS-AM7